This demonstration page uses our WeatherBlox Daily Observations layout. Learn more.

38.88101, -77.10428

Hourly Observations for April 24, 2020

Temp ( °F °C ) Dew Point ( °F °C ) Humidity (%) Winds ( mph kmh ) Pressure ( in mb ) Visibility ( mi km ) Precip ( " mm )
12:35 am 00:35 Cloudy with Light Rain 55 12.8 53 11.7 93 93 NNE 5 7 29.77 1008 3 4.82802 0.001 0.001
12:43 am 00:43 Cloudy with Light Rain 54 12.2 53 11.7 97 97 NNE 5 7 29.77 1008 3 4.82802 0.01 0.254
12:52 am 00:52 Cloudy with Light Rain 54 12.2 53 11.7 97 97 NE 5 7 29.76 1008 3 4.82802 0.01 0.254
1:52 am 01:52 Cloudy with Light Rain 54 12.2 53 11.7 97 97 NE 8 13 29.72 1007 6 9.65604 0.02 0.508
2:07 am 02:07 Cloudy 54 12.2 53 11.7 97 97 NE 9 15 29.71 1006 10 16.0934 0.001 0.001
2:52 am 02:52 Cloudy 54 12.2 53 11.7 97 97 NE 6 9 29.68 1005 10 16.0934 0.001 0.001
3:04 am 03:04 Cloudy 54 12.2 53 11.7 97 97 NE 9 15 29.68 1005 10 16.0934 0 0
3:52 am 03:52 Cloudy with Light Rain 54 12.2 53 11.7 97 97 NE 9 15 29.65 1004 5 8.0467 0.01 0.254
4:07 am 04:07 Cloudy with Rain 54 12.2 53 11.7 97 97 NE 8 13 29.65 1004 4 6.43736 0.02 0.508
4:52 am 04:52 Cloudy with Light Rain 54 12.2 53 11.7 97 97 NE 6 9 29.65 1004 10 16.0934 0.05 1.27
5:09 am 05:09 Cloudy with Heavy Rain 54 12.2 53 11.7 97 97 NE 8 13 29.64 1004 4 6.43736 0.04 1.016
5:16 am 05:16 Cloudy with Heavy Rain 54 12.2 52 11.1 93 93 NNE 8 13 29.64 1004 2.5 4.02335 0.09 2.286
5:39 am 05:39 Cloudy with Light Rain 53 11.7 52 11.1 96 96 NE 8 13 29.63 1003 5 8.0467 0.24 6.096
5:52 am 05:52 Cloudy with Rain 53 11.7 52 11.1 96 96 NE 8 13 29.64 1004 6 9.65604 0.28 7.112
6:24 am 06:24 Cloudy 53 11.7 52 11.1 96 96 NE 6 9 29.64 1004 10 16.0934 0.01 0.254
6:52 am 06:52 Cloudy with Light Rain 53 11.7 52 11.1 96 96 NNE 6 9 29.63 1003 10 16.0934 0.01 0.254
7:26 am 07:26 Cloudy with Light Rain 53 11.7 51 10.6 93 93 NE 6 9 29.63 1003 1.75 2.816345 0.02 0.508
7:52 am 07:52 Cloudy with Light Rain 52 11.1 51 10.6 97 97 NNE 7 11 29.63 1003 2 3.21868 0.19 4.826
8:07 am 08:07 Cloudy with Light Rain 53 11.7 51 10.6 93 93 NNE 7 11 29.64 1004 5 8.0467 0.01 0.254
8:11 am 08:11 Cloudy with Rain 52 11.1 51 10.6 97 97 NNE 7 11 29.64 1004 2.5 4.02335 0.03 0.762
8:16 am 08:16 Cloudy with Light Rain 53 11.7 51 10.6 93 93 N 6 9 29.64 1004 3 4.82802 0.04 1.016
8:27 am 08:27 Cloudy with Light Rain 53 11.7 51 10.6 93 93 N 10 17 29.64 1004 7 11.26538 0.04 1.016
8:52 am 08:52 Cloudy with Light Rain 53 11.7 51 10.6 93 93 NNE 9 15 29.63 1003 5 8.0467 0.05 1.27
9:52 am 09:52 Cloudy 53 11.7 51 10.6 93 93 NNE 9 15 29.63 1003 10 16.0934 0.001 0.001
10:52 am 10:52 Cloudy 54 12.2 51 10.6 90 90 NNE 9 15 29.64 1004 10 16.0934 0 0
11:52 am 11:52 Cloudy 55 12.8 52 11.1 90 90 NNE 6 9 29.65 1004 10 16.0934 0 0
12:40 pm 12:40 Cloudy 56 13.3 52 11.1 87 87 NE 5 7 29.67 1005 10 16.0934 0 0
12:52 pm 12:52 Cloudy 56 13.3 51 10.6 84 84 NNE 7 11 29.66 1005 10 16.0934 0 0
1:52 pm 13:52 Cloudy 56 13.3 52 11.1 87 87 N 8 13 29.69 1005 10 16.0934 0 0
2:52 pm 14:52 Cloudy 58 14.4 53 11.7 84 84 NNW 8 13 29.7 1006 10 16.0934 0 0
3:14 pm 15:14 Cloudy 59 15 53 11.7 81 81 N 12 19 29.7 1006 10 16.0934 0 0
3:52 pm 15:52 Mostly Cloudy 59 15 52 11.1 78 78 N 12 19 29.7 1006 10 16.0934 0 0
4:52 pm 16:52 Cloudy 59 15 51 10.6 75 75 NNE 13 20 29.72 1007 10 16.0934 0 0
5:52 pm 17:52 Cloudy 59 15 51 10.6 75 75 N 12 19 29.75 1008 10 16.0934 0 0
6:52 pm 18:52 Cloudy 57 13.9 50 10 78 78 NNE 12 19 29.79 1009 10 16.0934 0 0
7:52 pm 19:52 Cloudy 56 13.3 48 8.9 75 75 N 10 17 29.82 1010 10 16.0934 0 0
8:52 pm 20:52 Cloudy 56 13.3 48 8.9 75 75 NNE 14 22 29.85 1011 10 16.0934 0 0
9:52 pm 21:52 Cloudy 55 12.8 48 8.9 77 77 N 12 19 29.88 1012 10 16.0934 0 0
10:52 pm 22:52 Cloudy 55 12.8 47 8.3 74 74 NE 9 15 29.9 1013 10 16.0934 0 0
11:03 pm 23:03 Cloudy 54 12.2 48 8.9 80 80 NE 9 15 29.9 1013 10 16.0934 0 0
11:52 pm 23:52 Cloudy 54 12.2 48 8.9 80 80 ENE 8 13 29.91 1013 10 16.0934 0 0

Powered by AerisWeather